* Astronomy

Members Login
Username 
 
Password 
    Remember Me  
Post Info TOPIC: Asteroid 2009 HV58


L

Posts: 131433
Date:
Asteroid 2009 HV58
Permalink  
 


Orbital elements:
2009 HV58 Earth MOID = 0.0626 AU
Epoch 2009 June 18.0 TT = JDT 2455000.5 MPC
M 49.73037 (2000.0) P Q
n 0.33833157 Peri. 49.41054 -0.30430808 -0.68435872
a 2.0397379 Node 71.23408 +0.51393109 -0.70362714
e 0.6095857 Incl. 44.41173 +0.80204204 +0.19121189
P 2.91 H 19.5 G 0.15 U 9

MPEC 2009 - H59


__________________
Page 1 of 1  sorted by
 
Quick Reply

Please log in to post quick replies.



Create your own FREE Forum
Report Abuse
Powered by ActiveBoard